Location: Budapest
(47.4979°N, 19.0402°E)
Time: 02:42:39
(UTC+02:00)

Tiangong 2 - Pass Details

Date: 13 October 2017
Orbit: 388 x 391 km, 42.8° (Epoch: 21 October)

Event Time Altitude Azimuth Distance (km) Brightness Sun altitude
Exits shadow 05:44:13 20° 227° (SW) 968 2.6 -13.5°
Maximum altitude 05:45:51 34° 175° (S) 670 2.3 -13.2°
Drops below altitude 10° 05:48:47 10° 109° (ESE) 1,422 5.1 -12.7°
Sets 05:50:58 0° 99° (E) 2,279 6.8 -12.4°
